Tracking 30696 objects as of 15-Jun-2025
HD Live streaming from Space Station
objects crossing your sky now

SITRO-AIS-8

Track SITRO-AIS-8 now!
10-day predictions
SITRO-AIS-8 is classified as:


NORAD ID: 57193
Int'l Code: 2023-091AD
Perigee: 501.2 km
Apogee: 517.6 km
Inclination: 97.6 °
Period: 94.7 minutes
Semi major axis: 6880 km
RCS: Unknown
Launch date: June 27, 2023
Source: (TBD)
Launch site: VOSTOCHNY COSMODROME (VOSTO)

Uplink (MHz):
Downlink (MHz): 401.230
Beacon (MHz):
Mode: 2k4 GMSK_USP
Call sign: SC2210
Status: Active

Your satellite tracking list
Your tracking list is empty




NASA's NSSDC Master Catalog

Two Line Element Set (TLE):
1 57193U 23091AD  25166.17330521  .00008034  00000-0  36274-3 0  9992
2 57193  97.5567 223.6581 0011935 313.9270  46.0980 15.21190181108462
Source of the keplerian elements: AFSPC